Location: Poughquag
(41.6090°N, 73.6820°W)
Time: 15:07:10
(UTC-05:00)

Envisat - Pass Details

Date: 24 January 2020
Orbit: 764 x 766 km, 98.1° (Epoch: 24 February)

Event Time Altitude Azimuth Distance (km) Brightness Sun altitude
Rises 05:11:17 0° 34° (NE) 3,239 6.6 -22.8°
Reaches altitude 10° 05:15:03 10° 63° (ENE) 2,306 6.2 -22.1°
Maximum altitude 05:17:14 13° 89° (E) 2,117 6.3 -21.7°
Drops below altitude 10° 05:19:25 10° 115° (ESE) 2,298 6.5 -21.3°
Sets 05:23:08 0° 143° (SE) 3,217 6.9 -20.6°
